Find Aiglonsat-1

NORAD ID: 68437 • Int'l Des: NNA 2026-067 • Owner: AIGLON • Country: CH • operational
LEOCIRCULARRETROGRADESSO

当前视图

正在加载3D地球...

About Aiglonsat-1

Aiglonsat-1 (NORAD 68437) is a satellite launched Mar 30, 2026 by AIGLON of CH. It operates in LEO, CIRCULAR, RETROGRADE, SSO orbit with a mass of 1.70 kg.

即将过境

Passes for default location (London). Set your location on the main map for personalized predictions.

高度历史

Loading altitude history...

两行轨道根数

1 68437U 26067X 26267.13281235 .00015113 00000-0 66190-3 0 9993
2 68437 97.4603 224.5820 0004733 75.0506 285.1254 15.22106712 26981
Epoch: Sep 24, 2026 • Age: 18 hours

当前状态

高度 525.6 km
远地点 / 近地点 N/A
速度 7.60 km/s
星下点 -59.51°S, 64.92°E
发射日期 Mar 30, 2026
运行时间 0.4 years
类型 other

技术详情

分类 Payload
质量 1.70 kg
干质量 0.00 kg
总质量 0.00 kg
长度 0.00 m
直径 0.10 m
跨度 0.10 m
形状 Box
制造商 AIGLON
平台类型 Cubesat 1U
阶段状态 In Orbit
所有者/国家 AIGLON/CH

Most Searched